Time,TemperatureF,DewpointF,PressureIn,WindDirection,WindDirectionDegrees,WindSpeedMPH,WindSpeedGustMPH,Humidity,HourlyPrecipIn,Conditions,Clouds,dailyrainin,SoftwareType,DateUTC
2013-01-26 00:00:00,7.3,3.7,30.10,East,79,0.0,0.0,85,0.00,RA,,0.00,WeatherDisplay:10.37,2013-01-26 05:00:00,
2013-01-26 00:02:00,7.2,3.6,30.11,East,79,0.0,0.0,85,0.00,RA,,0.00,WeatherDisplay:10.37,2013-01-26 05:02:00,
2013-01-26 00:03:00,7.2,3.6,30.11,East,79,0.0,0.0,85,0.00,RA,,0.00,WeatherDisplay:10.37,2013-01-26 05:03:00,
2013-01-26 00:08:00,7.0,3.4,30.11,East,79,0.0,0.0,85,0.00,RA,,0.00,WeatherDisplay:10.37,2013-01-26 05:08:00,
2013-01-26 00:13:00,7.0,3.7,30.11,East,79,0.0,0.0,86,0.00,,,0.00,WeatherDisplay:10.37,2013-01-26 05:13:00,
2013-01-26 00:18:00,7.0,3.4,30.11,East,79,0.0,0.0,85,0.00,,,0.00,WeatherDisplay:10.37,2013-01-26 05:18:00,
2013-01-26 00:23:00,6.9,3.3,30.11,East,79,0.0,0.0,85,0.00,,,0.00,WeatherDisplay:10.37,2013-01-26 05:23:00,
2013-01-26 00:28:00,6.5,2.7,30.11,East,79,0.0,0.0,84,0.00,,,0.00,WeatherDisplay:10.37,2013-01-26 05:28:00,
2013-01-26 00:33:00,6.1,2.3,30.11,East,79,0.0,0.0,84,0.00,,,0.00,WeatherDisplay:10.37,2013-01-26 05:33:00,
2013-01-26 00:38:00,6.0,2.5,30.11,East,79,0.0,0.0,85,0.00,,,0.00,WeatherDisplay:10.37,2013-01-26 05:38:00,
2013-01-26 00:43:00,6.0,2.5,30.11,East,79,0.0,0.0,85,0.00,,,0.00,WeatherDisplay:10.37,2013-01-26 05:43:00,
2013-01-26 00:48:00,6.0,2.5,30.11,East,79,0.0,0.0,85,0.00,,,0.00,WeatherDisplay:10.37,2013-01-26 05:48:00,
2013-01-26 00:53:00,5.4,1.6,30.11,East,79,0.0,0.0,84,0.00,,,0.00,WeatherDisplay:10.37,2013-01-26 05:53:00,
2013-01-26 00:58:00,4.7,0.9,30.11,East,96,0.0,0.0,84,0.00,,,0.00,WeatherDisplay:10.37,2013-01-26 05:58:00,
2013-01-26 01:03:00,4.5,0.7,30.11,SE,138,0.0,0.0,84,0.00,CLR,,0.00,WeatherDisplay:10.37,2013-01-26 06:03:00,
2013-01-26 01:08:00,4.2,0.7,30.11,SSE,153,0.0,0.0,85,0.00,CLR,,0.00,WeatherDisplay:10.37,2013-01-26 06:08:00,
2013-01-26 01:13:00,4.0,0.5,30.11,SSE,153,0.0,0.0,85,0.00,CLR,,0.00,WeatherDisplay:10.37,2013-01-26 06:13:00,
2013-01-26 01:18:00,3.9,0.4,30.11,SSE,153,0.0,0.0,85,0.00,CLR,,0.00,WeatherDisplay:10.37,2013-01-26 06:18:00,
2013-01-26 01:23:00,3.8,0.3,30.11,SSE,153,0.0,0.0,85,0.00,CLR,,0.00,WeatherDisplay:10.37,2013-01-26 06:23:00,
2013-01-26 01:28:00,3.9,0.6,30.11,SSE,153,0.0,0.0,86,0.00,CLR,,0.00,WeatherDisplay:10.37,2013-01-26 06:28:00,
2013-01-26 01:33:00,4.0,0.7,30.12,SSE,153,0.0,0.0,86,0.00,CLR,,0.00,WeatherDisplay:10.37,2013-01-26 06:33:00,
2013-01-26 01:38:00,4.1,0.8,30.12,SSE,153,0.0,0.0,86,0.00,CLR,,0.00,WeatherDisplay:10.37,2013-01-26 06:38:00,
2013-01-26 01:43:00,4.2,0.9,30.12,SSE,153,0.0,0.0,86,0.00,CLR,,0.00,WeatherDisplay:10.37,2013-01-26 06:43:00,
2013-01-26 01:48:00,4.4,1.1,30.12,SSE,153,0.0,0.0,86,0.00,CLR,,0.00,WeatherDisplay:10.37,2013-01-26 06:48:00,
2013-01-26 01:53:00,4.2,0.9,30.12,SSE,153,0.0,0.0,86,0.00,CLR,,0.00,WeatherDisplay:10.37,2013-01-26 06:53:00,
2013-01-26 01:58:00,4.2,0.9,30.12,SSE,153,0.0,0.0,86,0.00,CLR,,0.00,WeatherDisplay:10.37,2013-01-26 06:58:00,
2013-01-26 02:03:00,4.2,0.7,30.13,SSE,153,0.0,0.0,85,0.00,CLR,,0.00,WeatherDisplay:10.37,2013-01-26 07:03:00,
2013-01-26 02:08:00,4.1,0.6,30.13,SSE,153,0.0,0.0,85,0.00,CLR,,0.00,WeatherDisplay:10.37,2013-01-26 07:08:00,
2013-01-26 02:13:00,3.8,0.0,30.12,SSE,153,0.0,0.0,84,0.00,CLR,,0.00,WeatherDisplay:10.37,2013-01-26 07:13:00,
2013-01-26 02:18:00,3.7,-0.1,30.13,SSE,153,0.0,0.0,84,0.00,CLR,,0.00,WeatherDisplay:10.37,2013-01-26 07:18:00,
2013-01-26 02:23:00,3.7,-0.1,30.13,SSE,153,0.0,0.0,84,0.00,CLR,,0.00,WeatherDisplay:10.37,2013-01-26 07:23:00,
2013-01-26 02:28:00,3.7,-0.1,30.13,SSE,153,0.0,0.0,84,0.00,CLR,,0.00,WeatherDisplay:10.37,2013-01-26 07:28:00,
2013-01-26 02:33:00,3.2,-0.8,30.13,SSE,153,0.0,0.0,83,0.00,CLR,,0.00,WeatherDisplay:10.37,2013-01-26 07:33:00,
2013-01-26 02:38:00,2.6,-1.4,30.12,SSE,153,0.0,0.0,83,0.00,CLR,,0.00,WeatherDisplay:10.37,2013-01-26 07:38:00,
2013-01-26 02:43:00,2.7,-1.0,30.12,SSE,153,0.0,0.0,84,0.00,CLR,,0.00,WeatherDisplay:10.37,2013-01-26 07:43:00,
2013-01-26 02:48:00,2.8,-0.7,30.12,SSE,153,0.0,0.0,85,0.00,CLR,,0.00,WeatherDisplay:10.37,2013-01-26 07:48:00,
2013-01-26 02:53:00,2.8,-0.7,30.13,SSE,153,0.0,0.0,85,0.00,CLR,,0.00,WeatherDisplay:10.37,2013-01-26 07:53:00,
2013-01-26 02:58:00,2.9,-0.6,30.12,SSE,153,0.0,0.0,85,0.00,CLR,,0.00,WeatherDisplay:10.37,2013-01-26 07:58:00,
2013-01-26 03:03:00,2.8,-0.9,30.13,SSE,153,0.0,0.0,84,0.00,CLR,,0.00,WeatherDisplay:10.37,2013-01-26 08:03:00,
2013-01-26 03:08:00,2.6,-1.1,30.12,SSE,153,0.0,0.0,84,0.00,CLR,,0.00,WeatherDisplay:10.37,2013-01-26 08:08:00,
2013-01-26 03:13:00,2.6,-0.9,30.13,SSE,153,0.0,0.0,85,0.00,CLR,,0.00,WeatherDisplay:10.37,2013-01-26 08:13:00,
2013-01-26 03:18:00,2.6,-0.9,30.13,SSE,153,0.0,0.0,85,0.00,CLR,,0.00,WeatherDisplay:10.37,2013-01-26 08:18:00,
2013-01-26 03:23:00,2.6,-0.9,30.13,SSE,153,0.0,0.0,85,0.00,CLR,,0.00,WeatherDisplay:10.37,2013-01-26 08:23:00,
2013-01-26 03:28:00,2.4,-1.1,30.13,SSE,153,0.0,0.0,85,0.00,CLR,,0.00,WeatherDisplay:10.37,2013-01-26 08:28:00,
2013-01-26 03:33:00,2.4,-1.1,30.13,SSE,153,0.0,0.0,85,0.00,CLR,,0.00,WeatherDisplay:10.37,2013-01-26 08:33:00,
2013-01-26 03:38:00,2.4,-1.1,30.13,SSE,153,0.0,0.0,85,0.00,CLR,,0.00,WeatherDisplay:10.37,2013-01-26 08:38:00,
2013-01-26 03:43:00,2.6,-0.9,30.13,SSE,153,0.0,0.0,85,0.00,CLR,,0.00,WeatherDisplay:10.37,2013-01-26 08:43:00,
2013-01-26 03:48:00,2.8,-0.4,30.13,SSE,153,0.0,0.0,86,0.00,CLR,,0.00,WeatherDisplay:10.37,2013-01-26 08:48:00,
2013-01-26 03:53:00,2.9,-0.3,30.13,SSE,153,0.0,0.0,86,0.00,CLR,,0.00,WeatherDisplay:10.37,2013-01-26 08:53:00,
2013-01-26 03:58:00,3.1,-0.1,30.13,SSE,153,0.0,0.0,86,0.00,CLR,,0.00,WeatherDisplay:10.37,2013-01-26 08:58:00,
2013-01-26 04:03:00,2.7,-1.0,30.14,SSE,153,0.0,0.0,84,0.00,CLR,,0.00,WeatherDisplay:10.37,2013-01-26 09:03:00,
2013-01-26 04:08:00,1.9,-1.8,30.14,SSE,153,0.0,0.0,84,0.00,CLR,,0.00,WeatherDisplay:10.37,2013-01-26 09:08:00,
2013-01-26 04:13:00,1.6,-2.1,30.14,SSE,153,0.0,0.0,84,0.00,CLR,,0.00,WeatherDisplay:10.37,2013-01-26 09:13:00,
2013-01-26 04:18:00,1.6,-1.9,30.14,SSE,153,0.0,0.0,85,0.00,CLR,,0.00,WeatherDisplay:10.37,2013-01-26 09:18:00,
2013-01-26 04:23:00,1.7,-1.8,30.14,SSE,153,0.0,0.0,85,0.00,CLR,,0.00,WeatherDisplay:10.37,2013-01-26 09:23:00,
2013-01-26 04:28:00,1.8,-1.7,30.14,SSE,153,0.0,0.0,85,0.00,CLR,,0.00,WeatherDisplay:10.37,2013-01-26 09:28:00,
2013-01-26 04:33:00,1.9,-1.6,30.15,SSE,153,0.0,0.0,85,0.00,CLR,,0.00,WeatherDisplay:10.37,2013-01-26 09:33:00,
2013-01-26 04:38:00,2.2,-1.3,30.15,SSE,153,0.0,0.0,85,0.00,CLR,,0.00,WeatherDisplay:10.37,2013-01-26 09:38:00,
2013-01-26 04:43:00,2.5,-0.7,30.15,SSE,153,0.0,0.0,86,0.00,CLR,,0.00,WeatherDisplay:10.37,2013-01-26 09:43:00,
2013-01-26 04:48:00,2.7,-0.8,30.15,SSE,153,0.0,0.0,85,0.00,CLR,,0.00,WeatherDisplay:10.37,2013-01-26 09:48:00,
2013-01-26 04:53:00,2.8,-0.7,30.15,SSE,153,0.0,0.0,85,0.00,CLR,,0.00,WeatherDisplay:10.37,2013-01-26 09:53:00,
2013-01-26 04:58:00,2.9,-0.3,30.15,SSE,153,0.0,0.0,86,0.00,CLR,,0.00,WeatherDisplay:10.37,2013-01-26 09:58:00,
2013-01-26 05:03:00,3.3,0.1,30.16,SSE,153,0.0,0.0,86,0.00,CLR,,0.00,WeatherDisplay:10.37,2013-01-26 10:03:00,
2013-01-26 05:08:00,3.5,0.3,30.15,SSE,153,0.0,0.0,86,0.00,CLR,,0.00,WeatherDisplay:10.37,2013-01-26 10:08:00,
2013-01-26 05:13:00,3.6,0.4,30.15,SSE,153,0.0,0.0,86,0.00,CLR,,0.00,WeatherDisplay:10.37,2013-01-26 10:13:00,
2013-01-26 05:18:00,3.8,0.5,30.16,SSE,153,0.0,0.0,86,0.00,CLR,,0.00,WeatherDisplay:10.37,2013-01-26 10:18:00,
2013-01-26 05:23:00,3.9,0.6,30.16,SSE,153,0.0,0.0,86,0.00,CLR,,0.00,WeatherDisplay:10.37,2013-01-26 10:23:00,
2013-01-26 05:28:00,4.0,0.7,30.16,SSE,153,0.0,0.0,86,0.00,CLR,,0.00,WeatherDisplay:10.37,2013-01-26 10:28:00,
2013-01-26 05:33:00,4.1,0.8,30.16,SSE,153,0.0,0.0,86,0.00,CLR,,0.00,WeatherDisplay:10.37,2013-01-26 10:33:00,
2013-01-26 05:38:00,4.3,1.0,30.16,SSE,153,0.0,0.0,86,0.00,CLR,,0.00,WeatherDisplay:10.37,2013-01-26 10:38:00,
2013-01-26 05:43:00,4.3,1.0,30.16,SSE,153,0.0,0.0,86,0.00,CLR,,0.00,WeatherDisplay:10.37,2013-01-26 10:43:00,
2013-01-26 05:48:00,4.4,1.1,30.16,SSE,153,0.0,0.0,86,0.00,CLR,,0.00,WeatherDisplay:10.37,2013-01-26 10:48:00,
2013-01-26 05:53:00,4.6,1.3,30.17,SSE,153,0.0,0.0,86,0.00,CLR,,0.00,WeatherDisplay:10.37,2013-01-26 10:53:00,
2013-01-26 05:58:00,4.7,1.4,30.17,SSE,153,0.0,0.0,86,0.00,CLR,,0.00,WeatherDisplay:10.37,2013-01-26 10:58:00,
2013-01-26 06:03:00,5.0,1.7,30.17,SSE,153,0.0,0.0,86,0.00,CLR,,0.00,WeatherDisplay:10.37,2013-01-26 11:03:00,
2013-01-26 06:08:00,5.3,2.0,30.17,SSE,153,0.0,0.0,86,0.00,CLR,,0.00,WeatherDisplay:10.37,2013-01-26 11:08:00,
2013-01-26 06:13:00,5.5,2.2,30.17,SSE,153,0.0,0.0,86,0.00,CLR,,0.00,WeatherDisplay:10.37,2013-01-26 11:13:00,
2013-01-26 06:18:00,5.7,2.4,30.18,SSE,153,0.0,0.0,86,0.00,CLR,,0.00,WeatherDisplay:10.37,2013-01-26 11:18:00,
2013-01-26 06:23:00,6.0,2.7,30.18,SSE,153,0.0,0.0,86,0.00,CLR,,0.00,WeatherDisplay:10.37,2013-01-26 11:23:00,
2013-01-26 06:28:00,6.1,2.8,30.18,SSE,153,0.0,0.0,86,0.00,CLR,,0.00,WeatherDisplay:10.37,2013-01-26 11:28:00,
2013-01-26 06:33:00,6.2,2.9,30.18,SSE,153,0.0,0.0,86,0.00,CLR,,0.00,WeatherDisplay:10.37,2013-01-26 11:33:00,
2013-01-26 06:38:00,6.1,2.8,30.19,SSE,153,0.0,0.0,86,0.00,CLR,,0.00,WeatherDisplay:10.37,2013-01-26 11:38:00,
2013-01-26 06:43:00,6.2,2.9,30.19,SSE,153,0.0,0.0,86,0.00,CLR,,0.00,WeatherDisplay:10.37,2013-01-26 11:43:00,
2013-01-26 06:48:00,6.2,2.9,30.19,SSE,153,0.0,0.0,86,0.00,CLR,,0.00,WeatherDisplay:10.37,2013-01-26 11:48:00,
2013-01-26 06:53:00,6.3,3.0,30.19,SSE,153,0.0,0.0,86,0.00,CLR,,0.00,WeatherDisplay:10.37,2013-01-26 11:53:00,
2013-01-26 06:58:00,6.4,3.1,30.19,SSE,153,0.0,0.0,86,0.00,CLR,,0.00,WeatherDisplay:10.37,2013-01-26 11:58:00,
2013-01-26 07:03:00,6.5,3.2,30.19,SSE,153,0.0,0.0,86,0.00,CLR,,0.00,WeatherDisplay:10.37,2013-01-26 12:03:00,
2013-01-26 07:08:00,6.5,3.2,30.19,SSE,153,0.0,0.0,86,0.00,CLR,,0.00,WeatherDisplay:10.37,2013-01-26 12:08:00,
2013-01-26 07:13:00,6.7,3.4,30.19,SSE,153,0.0,0.0,86,0.00,CLR,,0.00,WeatherDisplay:10.37,2013-01-26 12:13:00,
2013-01-26 07:18:00,6.9,3.6,30.19,SSE,153,0.0,0.0,86,0.00,CLR,,0.00,WeatherDisplay:10.37,2013-01-26 12:18:00,
2013-01-26 07:23:00,7.0,3.7,30.19,SSE,153,0.0,0.0,86,0.00,CLR,,0.00,WeatherDisplay:10.37,2013-01-26 12:23:00,
2013-01-26 07:28:00,7.2,3.9,30.19,SSE,153,0.0,0.0,86,0.00,CLR,,0.00,WeatherDisplay:10.37,2013-01-26 12:28:00,
2013-01-26 07:33:00,7.4,4.1,30.19,SSE,153,0.0,0.0,86,0.00,CLR,,0.00,WeatherDisplay:10.37,2013-01-26 12:33:00,
2013-01-26 07:38:00,7.8,4.7,30.19,SSE,153,0.0,0.0,87,0.00,CLR,,0.00,WeatherDisplay:10.37,2013-01-26 12:38:00,
2013-01-26 07:43:00,8.0,4.7,30.20,SSE,153,0.0,0.0,86,0.00,CLR,,0.00,WeatherDisplay:10.37,2013-01-26 12:43:00,
2013-01-26 07:48:00,8.1,4.8,30.19,SSE,153,0.0,0.0,86,0.00,CLR,,0.00,WeatherDisplay:10.37,2013-01-26 12:48:00,
2013-01-26 07:53:00,8.1,4.8,30.19,SSE,153,0.0,0.0,86,0.00,CLR,,0.00,WeatherDisplay:10.37,2013-01-26 12:53:00,
2013-01-26 07:58:00,8.1,4.8,30.20,SSE,155,0.0,0.0,86,0.00,CLR,,0.00,WeatherDisplay:10.37,2013-01-26 12:58:00,
2013-01-26 08:03:00,8.2,4.9,30.20,SSE,155,0.0,0.0,86,0.00,CLR,,0.00,WeatherDisplay:10.37,2013-01-26 13:03:00,
2013-01-26 08:08:00,8.2,4.9,30.21,SSE,155,0.0,0.0,86,0.00,CLR,,0.00,WeatherDisplay:10.37,2013-01-26 13:08:00,
2013-01-26 08:13:00,8.3,5.0,30.21,SSE,155,0.0,0.0,86,0.00,CLR,,0.00,WeatherDisplay:10.37,2013-01-26 13:13:00,
2013-01-26 08:18:00,8.5,5.2,30.21,SSE,156,0.0,0.0,86,0.00,CLR,,0.00,WeatherDisplay:10.37,2013-01-26 13:18:00,
2013-01-26 08:23:00,8.8,5.7,30.20,SSE,156,0.0,0.0,87,0.00,CLR,,0.00,WeatherDisplay:10.37,2013-01-26 13:23:00,
2013-01-26 08:28:00,9.0,5.7,30.21,SSE,155,0.0,0.0,86,0.00,CLR,,0.00,WeatherDisplay:10.37,2013-01-26 13:28:00,
2013-01-26 08:33:00,9.2,5.9,30.21,SSE,156,0.0,0.0,86,0.00,CLR,,0.00,WeatherDisplay:10.37,2013-01-26 13:33:00,
2013-01-26 08:38:00,9.6,6.3,30.21,SSE,156,0.0,0.0,86,0.00,CLR,,0.00,WeatherDisplay:10.37,2013-01-26 13:38:00,
2013-01-26 08:43:00,9.9,6.6,30.21,SSE,155,0.0,0.0,86,0.00,CLR,,0.00,WeatherDisplay:10.37,2013-01-26 13:43:00,
2013-01-26 08:48:00,10.0,6.6,30.22,SSE,155,0.0,0.0,86,0.00,CLR,,0.00,WeatherDisplay:10.37,2013-01-26 13:48:00,
2013-01-26 08:53:00,10.3,6.7,30.22,SSE,155,0.0,0.0,85,0.00,CLR,,0.00,WeatherDisplay:10.37,2013-01-26 13:53:00,
2013-01-26 08:58:00,10.5,6.9,30.22,SSE,156,0.0,0.0,85,0.00,CLR,,0.00,WeatherDisplay:10.37,2013-01-26 13:58:00,
2013-01-26 09:03:00,10.6,7.0,30.22,SSE,156,0.0,0.0,85,0.00,CLR,,0.00,WeatherDisplay:10.37,2013-01-26 14:03:00,
2013-01-26 09:08:00,10.6,6.7,30.23,SSE,160,0.0,0.0,84,0.00,CLR,,0.00,WeatherDisplay:10.37,2013-01-26 14:08:00,
2013-01-26 09:13:00,10.8,7.2,30.23,SSE,160,0.0,0.0,85,0.00,CLR,,0.00,WeatherDisplay:10.37,2013-01-26 14:13:00,
2013-01-26 09:18:00,11.2,7.6,30.22,SSE,160,0.0,0.0,85,0.00,CLR,,0.00,WeatherDisplay:10.37,2013-01-26 14:18:00,
2013-01-26 09:23:00,11.6,8.0,30.23,SSE,160,0.0,0.0,85,0.00,CLR,,0.00,WeatherDisplay:10.37,2013-01-26 14:23:00,
2013-01-26 09:28:00,11.9,8.3,30.23,SSE,160,0.0,0.0,85,0.00,CLR,,0.00,WeatherDisplay:10.37,2013-01-26 14:28:00,
2013-01-26 09:33:00,12.3,8.7,30.23,SSE,160,0.0,0.0,85,0.00,CLR,,0.00,WeatherDisplay:10.37,2013-01-26 14:33:00,
2013-01-26 09:38:00,12.9,9.2,30.23,SSE,160,0.0,0.0,85,0.00,CLR,,0.00,WeatherDisplay:10.37,2013-01-26 14:38:00,
2013-01-26 09:43:00,13.3,9.4,30.23,SSE,160,0.0,1.1,84,0.00,CLR,,0.00,WeatherDisplay:10.37,2013-01-26 14:43:00,
2013-01-26 09:48:00,13.7,9.8,30.23,SSE,160,0.0,0.0,84,0.00,CLR,,0.00,WeatherDisplay:10.37,2013-01-26 14:48:00,
2013-01-26 09:53:00,14.3,10.1,30.23,SSE,160,0.0,1.1,83,0.00,CLR,,0.00,WeatherDisplay:10.37,2013-01-26 14:53:00,
2013-01-26 09:58:00,14.4,9.9,30.23,SSE,162,0.0,0.0,82,0.00,CLR,,0.00,WeatherDisplay:10.37,2013-01-26 14:58:00,
2013-01-26 10:03:00,14.5,10.0,30.23,SSE,162,0.0,0.0,82,0.00,CLR,,0.00,WeatherDisplay:10.37,2013-01-26 15:03:00,
2013-01-26 10:08:00,15.1,10.6,30.23,SSE,162,0.1,1.1,82,0.00,CLR,,0.00,WeatherDisplay:10.37,2013-01-26 15:08:00,
2013-01-26 10:13:00,15.5,10.7,30.23,SSE,163,0.0,0.0,81,0.00,CLR,,0.00,WeatherDisplay:10.37,2013-01-26 15:13:00,
2013-01-26 10:18:00,15.5,10.4,30.24,SW,233,0.0,1.0,80,0.00,CLR,,0.00,WeatherDisplay:10.37,2013-01-26 15:18:00,
2013-01-26 10:23:00,15.8,11.0,30.23,SSW,207,1.2,3.5,81,0.00,CLR,,0.00,WeatherDisplay:10.37,2013-01-26 15:23:00,
2013-01-26 10:28:00,15.9,10.8,30.23,SSE,160,0.0,1.1,80,0.00,CLR,,0.00,WeatherDisplay:10.37,2013-01-26 15:28:00,
2013-01-26 10:33:00,16.2,11.1,30.23,South,170,0.2,3.5,80,0.00,CLR,,0.00,WeatherDisplay:10.37,2013-01-26 15:33:00,
2013-01-26 10:38:00,16.4,11.3,30.23,South,170,0.0,0.0,80,0.00,CLR,,0.00,WeatherDisplay:10.37,2013-01-26 15:38:00,
2013-01-26 10:43:00,16.4,10.7,30.23,South,188,0.3,2.3,78,0.00,CLR,,0.00,WeatherDisplay:10.37,2013-01-26 15:43:00,
2013-01-26 10:48:00,16.6,11.2,30.23,SW,223,0.7,3.0,79,0.00,CLR,,0.00,WeatherDisplay:10.37,2013-01-26 15:48:00,
2013-01-26 10:53:00,17.0,11.6,30.23,South,175,0.0,0.0,79,0.00,CLR,,0.00,WeatherDisplay:10.37,2013-01-26 15:53:00,
2013-01-26 10:58:00,17.5,11.8,30.23,SSW,202,1.8,2.3,78,0.00,CLR,,0.00,WeatherDisplay:10.37,2013-01-26 15:58:00,
2013-01-26 11:03:00,17.9,11.6,30.23,SSE,153,1.3,3.5,76,0.00,CLR,,0.00,WeatherDisplay:10.37,2013-01-26 16:03:00,
2013-01-26 11:08:00,18.2,11.3,30.23,SSW,200,3.3,3.5,74,0.00,CLR,,0.00,WeatherDisplay:10.37,2013-01-26 16:08:00,
2013-01-26 11:13:00,18.1,10.6,30.24,South,183,1.2,3.0,72,0.00,CLR,,0.00,WeatherDisplay:10.37,2013-01-26 16:13:00,
2013-01-26 11:18:00,18.2,10.4,30.24,SSW,200,4.0,5.8,71,0.00,CLR,,0.00,WeatherDisplay:10.37,2013-01-26 16:18:00,
2013-01-26 11:23:00,18.3,10.5,30.23,South,182,1.4,3.5,71,0.00,CLR,,0.00,WeatherDisplay:10.37,2013-01-26 16:23:00,
2013-01-26 11:28:00,18.7,10.5,30.23,SSW,206,1.2,3.5,70,0.00,CLR,,0.00,WeatherDisplay:10.37,2013-01-26 16:28:00,
2013-01-26 11:33:00,18.8,10.6,30.23,SSW,213,2.9,5.8,70,0.00,CLR,,0.00,WeatherDisplay:10.37,2013-01-26 16:33:00,
2013-01-26 11:38:00,18.8,10.6,30.24,SSW,203,0.0,1.1,70,0.00,CLR,,0.00,WeatherDisplay:10.37,2013-01-26 16:38:00,
2013-01-26 11:43:00,19.2,11.0,30.24,SSW,195,1.8,3.5,70,0.00,CLR,,0.00,WeatherDisplay:10.37,2013-01-26 16:43:00,
2013-01-26 11:48:00,19.5,11.3,30.24,South,186,0.0,1.1,70,0.00,CLR,,0.00,WeatherDisplay:10.37,2013-01-26 16:48:00,
2013-01-26 11:53:00,19.7,11.2,30.24,South,173,0.5,2.3,69,0.00,CLR,,0.00,WeatherDisplay:10.37,2013-01-26 16:53:00,
2013-01-26 11:58:00,19.7,10.8,30.24,South,181,2.0,3.5,68,0.00,CLR,,0.00,WeatherDisplay:10.37,2013-01-26 16:58:00,
2013-01-26 12:03:00,19.7,10.8,30.24,South,186,0.9,3.0,68,0.00,CLR,,0.00,WeatherDisplay:10.37,2013-01-26 17:03:00,
2013-01-26 12:08:00,19.9,11.4,30.24,South,184,2.9,3.5,69,0.00,CLR,,0.00,WeatherDisplay:10.37,2013-01-26 17:08:00,
2013-01-26 12:13:00,20.2,11.3,30.24,WNW,284,1.1,3.5,68,0.00,CLR,,0.00,WeatherDisplay:10.37,2013-01-26 17:13:00,
2013-01-26 12:18:00,20.5,11.6,30.24,WNW,286,0.7,3.0,68,0.00,CLR,,0.00,WeatherDisplay:10.37,2013-01-26 17:18:00,
2013-01-26 12:23:00,20.7,11.1,30.24,SSE,159,0.6,2.3,66,0.00,CLR,,0.00,WeatherDisplay:10.37,2013-01-26 17:23:00,
2013-01-26 12:28:00,20.9,11.7,30.24,WSW,244,4.4,6.9,67,0.00,CLR,,0.00,WeatherDisplay:10.37,2013-01-26 17:28:00,
2013-01-26 12:33:00,21.3,11.7,30.25,SSW,197,2.7,4.0,66,0.00,CLR,,0.00,WeatherDisplay:10.37,2013-01-26 17:33:00,
2013-01-26 12:38:00,21.3,11.0,30.24,South,180,3.1,5.8,64,0.00,CLR,,0.00,WeatherDisplay:10.37,2013-01-26 17:38:00,
2013-01-26 12:43:00,21.3,11.4,30.24,South,190,1.8,3.5,65,0.00,CLR,,0.00,WeatherDisplay:10.37,2013-01-26 17:43:00,
2013-01-26 12:48:00,21.5,11.5,30.25,WNW,302,1.6,2.3,65,0.00,CLR,,0.00,WeatherDisplay:10.37,2013-01-26 17:48:00,
2013-01-26 12:53:00,21.6,10.6,30.25,SW,234,1.6,3.5,62,0.00,CLR,,0.00,WeatherDisplay:10.37,2013-01-26 17:53:00,
2013-01-26 12:58:00,21.7,11.4,30.25,WSW,238,3.0,4.0,64,0.00,CLR,,0.00,WeatherDisplay:10.37,2013-01-26 17:58:00,
2013-01-26 13:03:00,21.6,10.9,30.25,SW,225,0.7,2.3,63,0.00,CLR,,0.00,WeatherDisplay:10.37,2013-01-26 18:03:00,
2013-01-26 13:08:00,21.8,11.5,30.25,SW,217,1.4,3.5,64,0.00,CLR,,0.00,WeatherDisplay:10.37,2013-01-26 18:08:00,
2013-01-26 13:13:00,21.6,10.6,30.25,SW,224,3.7,5.8,62,0.00,CLR,,0.00,WeatherDisplay:10.37,2013-01-26 18:13:00,
2013-01-26 13:18:00,21.4,10.4,30.25,SSW,200,1.9,4.6,62,0.00,CLR,,0.00,WeatherDisplay:10.37,2013-01-26 18:18:00,
2013-01-26 13:23:00,21.7,11.4,30.25,SW,228,0.6,3.5,64,0.00,CLR,,0.00,WeatherDisplay:10.37,2013-01-26 18:23:00,
2013-01-26 13:28:00,22.0,11.3,30.25,West,281,0.7,3.0,63,0.00,CLR,,0.00,WeatherDisplay:10.37,2013-01-26 18:28:00,
2013-01-26 13:33:00,22.1,11.4,30.25,SW,217,1.5,3.5,63,0.00,CLR,,0.00,WeatherDisplay:10.37,2013-01-26 18:33:00,
2013-01-26 13:38:00,21.8,11.1,30.25,West,260,0.9,4.0,63,0.00,CLR,,0.00,WeatherDisplay:10.37,2013-01-26 18:38:00,
2013-01-26 13:43:00,22.0,11.3,30.25,WSW,256,0.4,1.1,63,0.00,CLR,,0.00,WeatherDisplay:10.37,2013-01-26 18:43:00,
2013-01-26 13:48:00,22.3,12.0,30.25,West,277,0.2,1.1,64,0.00,CLR,,0.00,WeatherDisplay:10.37,2013-01-26 18:48:00,
2013-01-26 13:53:00,22.5,11.4,30.25,SSW,204,2.1,4.6,62,0.00,CLR,,0.00,WeatherDisplay:10.37,2013-01-26 18:53:00,
2013-01-26 13:58:00,22.6,11.5,30.25,NW,306,1.2,3.5,62,0.00,CLR,,0.00,WeatherDisplay:10.37,2013-01-26 18:58:00,
2013-01-26 14:03:00,22.7,12.0,30.25,SSW,201,0.2,1.1,63,0.00,CLR,,0.00,WeatherDisplay:10.37,2013-01-26 19:03:00,
2013-01-26 14:08:00,22.9,11.8,30.25,NNW,335,0.5,2.3,62,0.00,CLR,,0.00,WeatherDisplay:10.37,2013-01-26 19:08:00,
2013-01-26 14:13:00,23.2,12.5,30.26,SSW,199,0.0,0.0,63,0.00,CLR,,0.00,WeatherDisplay:10.37,2013-01-26 19:13:00,
2013-01-26 14:18:00,23.3,11.8,30.26,SW,230,1.4,3.5,61,0.00,CLR,,0.00,WeatherDisplay:10.37,2013-01-26 19:18:00,
2013-01-26 14:23:00,23.2,11.7,30.26,WSW,244,1.7,4.0,61,0.00,CLR,,0.00,WeatherDisplay:10.37,2013-01-26 19:23:00,
2013-01-26 14:28:00,23.0,11.9,30.26,NNW,340,0.1,1.1,62,0.00,CLR,,0.00,WeatherDisplay:10.37,2013-01-26 19:28:00,
2013-01-26 14:33:00,22.9,11.8,30.26,WSW,256,3.3,5.8,62,0.00,CLR,,0.00,WeatherDisplay:10.37,2013-01-26 19:33:00,
2013-01-26 14:38:00,22.9,12.2,30.26,SW,232,1.6,3.5,63,0.00,,,0.00,WeatherDisplay:10.37,2013-01-26 19:38:00,
2013-01-26 14:43:00,23.1,12.7,30.26,NW,311,0.6,2.3,64,0.00,,,0.00,WeatherDisplay:10.37,2013-01-26 19:43:00,
2013-01-26 14:48:00,23.3,12.9,30.26,NW,319,0.4,2.0,64,0.00,,,0.00,WeatherDisplay:10.37,2013-01-26 19:48:00,
2013-01-26 14:53:00,23.3,12.9,30.26,WSW,254,2.3,2.3,64,0.00,,,0.00,WeatherDisplay:10.37,2013-01-26 19:53:00,
2013-01-26 14:58:00,23.3,12.9,30.27,NNW,341,1.0,3.5,64,0.00,,,0.00,WeatherDisplay:10.37,2013-01-26 19:58:00,
2013-01-26 15:03:00,23.2,13.5,30.27,North,351,0.8,2.3,66,0.00,,,0.00,WeatherDisplay:10.37,2013-01-26 20:03:00,
2013-01-26 15:08:00,23.2,13.9,30.27,SW,218,2.1,4.6,67,0.00,,,0.00,WeatherDisplay:10.37,2013-01-26 20:08:00,
2013-01-26 15:13:00,23.1,13.4,30.27,NNW,337,1.8,4.0,66,0.00,,,0.00,WeatherDisplay:10.37,2013-01-26 20:13:00,
2013-01-26 15:18:00,22.8,13.1,30.27,SW,228,0.6,5.0,66,0.00,,,0.00,WeatherDisplay:10.37,2013-01-26 20:18:00,
2013-01-26 15:23:00,22.7,13.7,30.28,NW,309,0.0,0.0,68,0.00,,,0.00,WeatherDisplay:10.37,2013-01-26 20:23:00,
2013-01-26 15:28:00,22.8,13.5,30.27,WNW,290,1.6,4.6,67,0.00,,,0.00,WeatherDisplay:10.37,2013-01-26 20:28:00,
2013-01-26 15:33:00,22.6,13.6,30.27,NNW,346,1.4,3.5,68,0.00,,,0.00,WeatherDisplay:10.37,2013-01-26 20:33:00,
2013-01-26 15:38:00,22.2,13.6,30.27,NW,321,3.4,4.6,69,0.00,,,0.00,WeatherDisplay:10.37,2013-01-26 20:38:00,
2013-01-26 15:43:00,22.1,14.1,30.27,NNW,328,0.0,0.0,71,0.00,,,0.00,WeatherDisplay:10.37,2013-01-26 20:43:00,
2013-01-26 15:48:00,22.1,14.1,30.28,NNW,345,0.5,2.3,71,0.00,,,0.00,WeatherDisplay:10.37,2013-01-26 20:48:00,
2013-01-26 15:53:00,22.2,14.2,30.28,WNW,297,0.4,2.3,71,0.00,,,0.00,WeatherDisplay:10.37,2013-01-26 20:53:00,
2013-01-26 15:58:00,22.2,14.5,30.28,North,360,0.0,0.0,72,0.00,,,0.00,WeatherDisplay:10.37,2013-01-26 20:58:00,
2013-01-26 16:03:00,22.1,14.4,30.28,North,355,0.7,2.3,72,0.00,,,0.00,WeatherDisplay:10.37,2013-01-26 21:03:00,
2013-01-26 16:08:00,22.0,14.3,30.28,NW,322,0.0,0.0,72,0.00,,,0.00,WeatherDisplay:10.37,2013-01-26 21:08:00,
2013-01-26 16:13:00,21.9,14.6,30.28,North,9,0.0,0.0,73,0.00,,,0.00,WeatherDisplay:10.37,2013-01-26 21:13:00,
2013-01-26 16:18:00,21.9,14.6,30.28,North,355,0.0,0.0,73,0.00,,,0.00,WeatherDisplay:10.37,2013-01-26 21:18:00,
2013-01-26 16:23:00,21.9,14.6,30.29,North,355,0.0,0.0,73,0.00,,,0.00,WeatherDisplay:10.37,2013-01-26 21:23:00,
2013-01-26 16:28:00,21.9,14.9,30.29,North,355,0.0,0.0,74,0.00,,,0.00,WeatherDisplay:10.37,2013-01-26 21:28:00,
2013-01-26 16:33:00,22.0,15.0,30.29,North,355,0.0,0.0,74,0.00,,,0.00,WeatherDisplay:10.37,2013-01-26 21:33:00,
2013-01-26 16:38:00,21.9,14.6,30.29,North,355,0.0,0.0,73,0.00,,,0.00,WeatherDisplay:10.37,2013-01-26 21:38:00,
2013-01-26 16:43:00,21.9,14.6,30.29,North,355,0.0,0.0,73,0.00,,,0.00,WeatherDisplay:10.37,2013-01-26 21:43:00,
2013-01-26 16:48:00,21.8,14.8,30.30,North,355,0.0,0.0,74,0.00,,,0.00,WeatherDisplay:10.37,2013-01-26 21:48:00,
2013-01-26 16:53:00,21.6,14.6,30.30,North,355,0.0,0.0,74,0.00,,,0.00,WeatherDisplay:10.37,2013-01-26 21:53:00,
2013-01-26 16:58:00,21.3,14.6,30.30,North,355,0.0,2.3,75,0.00,,,0.00,WeatherDisplay:10.37,2013-01-26 21:58:00,
2013-01-26 17:03:00,21.1,14.7,30.31,North,355,0.0,0.0,76,0.00,,,0.00,WeatherDisplay:10.37,2013-01-26 22:03:00,
2013-01-26 17:08:00,20.8,14.7,30.30,North,355,0.0,0.0,77,0.00,,,0.00,WeatherDisplay:10.37,2013-01-26 22:08:00,
2013-01-26 17:13:00,20.8,14.7,30.31,North,355,0.0,0.0,77,0.00,,,0.00,WeatherDisplay:10.37,2013-01-26 22:13:00,
2013-01-26 17:18:00,20.7,14.6,30.31,North,355,0.0,0.0,77,0.00,,,0.00,WeatherDisplay:10.37,2013-01-26 22:18:00,
2013-01-26 17:23:00,20.6,14.5,30.31,North,355,0.0,0.0,77,0.00,,,0.00,WeatherDisplay:10.37,2013-01-26 22:23:00,
2013-01-26 17:28:00,20.6,14.5,30.31,North,355,0.0,0.0,77,0.00,,,0.00,WeatherDisplay:10.37,2013-01-26 22:28:00,
2013-01-26 17:33:00,20.5,14.7,30.31,North,355,0.0,0.0,78,0.00,,,0.00,WeatherDisplay:10.37,2013-01-26 22:33:00,
2013-01-26 17:38:00,20.5,14.7,30.31,North,355,0.0,0.0,78,0.00,CLR,,0.00,WeatherDisplay:10.37,2013-01-26 22:38:00,
2013-01-26 17:43:00,20.4,14.3,30.31,North,355,0.0,0.0,77,0.00,CLR,,0.00,WeatherDisplay:10.37,2013-01-26 22:43:00,
2013-01-26 17:48:00,20.3,14.2,30.31,North,355,0.0,0.0,77,0.00,CLR,,0.00,WeatherDisplay:10.37,2013-01-26 22:48:00,
2013-01-26 17:53:00,20.0,13.9,30.31,North,355,0.0,0.0,77,0.00,CLR,,0.00,WeatherDisplay:10.37,2013-01-26 22:53:00,
2013-01-26 17:58:00,19.9,13.9,30.32,North,355,0.0,0.0,77,0.00,CLR,,0.00,WeatherDisplay:10.37,2013-01-26 22:58:00,
2013-01-26 18:03:00,19.7,13.7,30.32,North,355,0.0,0.0,77,0.00,CLR,,0.00,WeatherDisplay:10.37,2013-01-26 23:03:00,
2013-01-26 18:08:00,19.6,13.6,30.32,North,355,0.0,0.0,77,0.00,CLR,,0.00,WeatherDisplay:10.37,2013-01-26 23:08:00,
2013-01-26 18:13:00,19.1,13.1,30.32,North,355,0.0,0.0,77,0.00,CLR,,0.00,WeatherDisplay:10.37,2013-01-26 23:13:00,
2013-01-26 18:18:00,18.2,12.2,30.32,North,355,0.0,0.0,77,0.00,CLR,,0.00,WeatherDisplay:10.37,2013-01-26 23:18:00,
2013-01-26 18:23:00,17.7,12.3,30.33,North,355,0.0,0.0,79,0.00,CLR,,0.00,WeatherDisplay:10.37,2013-01-26 23:23:00,
2013-01-26 18:28:00,17.4,12.0,30.33,North,355,0.0,0.0,79,0.00,CLR,,0.00,WeatherDisplay:10.37,2013-01-26 23:28:00,
2013-01-26 18:33:00,17.2,12.1,30.33,North,355,0.0,0.0,80,0.00,CLR,,0.00,WeatherDisplay:10.37,2013-01-26 23:33:00,
2013-01-26 18:38:00,17.2,12.1,30.33,North,355,0.0,0.0,80,0.00,CLR,,0.00,WeatherDisplay:10.37,2013-01-26 23:38:00,
2013-01-26 18:43:00,16.8,11.4,30.33,North,355,0.0,0.0,79,0.00,CLR,,0.00,WeatherDisplay:10.37,2013-01-26 23:43:00,
2013-01-26 18:48:00,16.4,11.3,30.33,North,355,0.0,0.0,80,0.00,CLR,,0.00,WeatherDisplay:10.37,2013-01-26 23:48:00,
2013-01-26 18:53:00,16.0,10.9,30.33,North,355,0.0,0.0,80,0.00,CLR,,0.00,WeatherDisplay:10.37,2013-01-26 23:53:00,
2013-01-26 18:58:00,15.5,10.7,30.33,North,355,0.0,0.0,81,0.00,CLR,,0.00,WeatherDisplay:10.37,2013-01-26 23:58:00,
2013-01-26 19:03:00,15.3,10.8,30.33,North,355,0.0,0.0,82,0.00,CLR,,0.00,WeatherDisplay:10.37,2013-01-27 00:03:00,
2013-01-26 19:08:00,15.0,10.5,30.33,North,355,0.0,0.0,82,0.00,CLR,,0.00,WeatherDisplay:10.37,2013-01-27 00:08:00,
2013-01-26 19:13:00,14.3,9.8,30.34,North,355,0.0,0.0,82,0.00,CLR,,0.00,WeatherDisplay:10.37,2013-01-27 00:13:00,
2013-01-26 19:18:00,13.7,9.5,30.34,North,355,0.0,0.0,83,0.00,CLR,,0.00,WeatherDisplay:10.37,2013-01-27 00:18:00,
2013-01-26 19:23:00,13.4,9.5,30.34,North,355,0.0,0.0,84,0.00,CLR,,0.00,WeatherDisplay:10.37,2013-01-27 00:23:00,
2013-01-26 19:28:00,13.2,9.5,30.34,North,355,0.0,0.0,85,0.00,CLR,,0.00,WeatherDisplay:10.37,2013-01-27 00:28:00,
2013-01-26 19:33:00,13.1,9.4,30.34,North,355,0.0,0.0,85,0.00,CLR,,0.00,WeatherDisplay:10.37,2013-01-27 00:33:00,
2013-01-26 19:38:00,13.2,9.8,30.34,North,355,0.0,0.0,86,0.00,CLR,,0.00,WeatherDisplay:10.37,2013-01-27 00:38:00,
2013-01-26 19:43:00,13.2,9.8,30.34,North,355,0.0,0.0,86,0.00,CLR,,0.00,WeatherDisplay:10.37,2013-01-27 00:43:00,
2013-01-26 19:48:00,13.2,9.8,30.34,North,355,0.0,0.0,86,0.00,CLR,,0.00,WeatherDisplay:10.37,2013-01-27 00:48:00,
2013-01-26 19:53:00,13.3,10.2,30.34,North,355,0.0,0.0,87,0.00,CLR,,0.00,WeatherDisplay:10.37,2013-01-27 00:53:00,
2013-01-26 19:58:00,13.4,10.3,30.34,North,355,0.0,0.0,87,0.00,CLR,,0.00,WeatherDisplay:10.37,2013-01-27 00:58:00,
2013-01-26 20:03:00,13.5,10.4,30.34,North,355,0.0,0.0,87,0.00,CLR,,0.00,WeatherDisplay:10.37,2013-01-27 01:03:00,
2013-01-26 20:08:00,13.6,10.5,30.35,North,355,0.0,0.0,87,0.00,CLR,,0.00,WeatherDisplay:10.37,2013-01-27 01:08:00,
2013-01-26 20:13:00,13.8,10.6,30.35,North,355,0.0,0.0,87,0.00,CLR,,0.00,WeatherDisplay:10.37,2013-01-27 01:13:00,
2013-01-26 20:18:00,14.0,10.8,30.35,North,355,0.0,0.0,87,0.00,CLR,,0.00,WeatherDisplay:10.37,2013-01-27 01:18:00,
2013-01-26 20:23:00,14.2,11.0,30.35,North,355,0.0,0.0,87,0.00,CLR,,0.00,WeatherDisplay:10.37,2013-01-27 01:23:00,
2013-01-26 20:28:00,14.4,11.2,30.35,North,355,0.0,0.0,87,0.00,CLR,,0.00,WeatherDisplay:10.37,2013-01-27 01:28:00,
2013-01-26 20:33:00,14.6,11.4,30.35,North,355,0.0,0.0,87,0.00,CLR,,0.00,WeatherDisplay:10.37,2013-01-27 01:33:00,
2013-01-26 20:38:00,14.7,11.5,30.35,North,355,0.0,0.0,87,0.00,CLR,,0.00,WeatherDisplay:10.37,2013-01-27 01:38:00,
2013-01-26 20:43:00,14.7,11.5,30.35,North,355,0.0,0.0,87,0.00,CLR,,0.00,WeatherDisplay:10.37,2013-01-27 01:43:00,
2013-01-26 20:48:00,14.8,11.6,30.35,North,355,0.0,0.0,87,0.00,CLR,,0.00,WeatherDisplay:10.37,2013-01-27 01:48:00,
2013-01-26 20:53:00,14.9,11.7,30.36,North,355,0.0,0.0,87,0.00,CLR,,0.00,WeatherDisplay:10.37,2013-01-27 01:53:00,
2013-01-26 20:58:00,15.1,11.9,30.36,North,355,0.0,0.0,87,0.00,CLR,,0.00,WeatherDisplay:10.37,2013-01-27 01:58:00,
2013-01-26 21:03:00,15.4,12.2,30.36,North,355,0.0,0.0,87,0.00,CLR,,0.00,WeatherDisplay:10.37,2013-01-27 02:03:00,
2013-01-26 21:08:00,15.7,12.5,30.36,North,355,0.0,0.0,87,0.00,CLR,,0.00,WeatherDisplay:10.37,2013-01-27 02:08:00,
2013-01-26 21:13:00,16.0,12.8,30.36,North,355,0.0,0.0,87,0.00,CLR,,0.00,WeatherDisplay:10.37,2013-01-27 02:13:00,
2013-01-26 21:18:00,16.3,13.1,30.36,North,355,0.0,0.0,87,0.00,CLR,,0.00,WeatherDisplay:10.37,2013-01-27 02:18:00,
2013-01-26 21:23:00,16.6,13.4,30.36,North,355,0.0,0.0,87,0.00,CLR,,0.00,WeatherDisplay:10.37,2013-01-27 02:23:00,
2013-01-26 21:28:00,16.8,13.3,30.36,North,355,0.0,0.0,86,0.00,CLR,,0.00,WeatherDisplay:10.37,2013-01-27 02:28:00,
2013-01-26 21:33:00,16.9,13.4,30.36,North,355,0.0,0.0,86,0.00,CLR,,0.00,WeatherDisplay:10.37,2013-01-27 02:33:00,
2013-01-26 21:38:00,16.9,13.2,30.36,North,355,0.0,0.0,85,0.00,,,0.00,WeatherDisplay:10.37,2013-01-27 02:38:00,
2013-01-26 21:43:00,17.1,13.4,30.36,North,355,0.0,0.0,85,0.00,,,0.00,WeatherDisplay:10.37,2013-01-27 02:43:00,
2013-01-26 21:48:00,17.3,13.6,30.36,North,355,0.0,0.0,85,0.00,,,0.00,WeatherDisplay:10.37,2013-01-27 02:48:00,
2013-01-26 21:53:00,17.4,13.7,30.37,North,355,0.0,0.0,85,0.00,,,0.00,WeatherDisplay:10.37,2013-01-27 02:53:00,
2013-01-26 21:58:00,17.4,13.4,30.36,North,355,0.0,0.0,84,0.00,,,0.00,WeatherDisplay:10.37,2013-01-27 02:58:00,
2013-01-26 22:03:00,17.4,13.4,30.37,North,355,0.0,0.0,84,0.00,,,0.00,WeatherDisplay:10.37,2013-01-27 03:03:00,
2013-01-26 22:08:00,17.1,12.8,30.36,North,355,0.0,0.0,83,0.00,,,0.00,WeatherDisplay:10.37,2013-01-27 03:08:00,
2013-01-26 22:13:00,16.8,12.5,30.37,North,355,0.0,0.0,83,0.00,,,0.00,WeatherDisplay:10.37,2013-01-27 03:13:00,
2013-01-26 22:18:00,16.5,12.2,30.37,North,355,0.0,0.0,83,0.00,,,0.00,WeatherDisplay:10.37,2013-01-27 03:18:00,
2013-01-26 22:23:00,16.5,12.5,30.37,North,355,0.0,0.0,84,0.00,,,0.00,WeatherDisplay:10.37,2013-01-27 03:23:00,
2013-01-26 22:28:00,16.6,12.6,30.37,North,355,0.0,0.0,84,0.00,,,0.00,WeatherDisplay:10.37,2013-01-27 03:28:00,
2013-01-26 22:33:00,16.7,12.7,30.38,North,355,0.0,0.0,84,0.00,,,0.00,WeatherDisplay:10.37,2013-01-27 03:33:00,
2013-01-26 22:38:00,16.8,12.8,30.38,North,355,0.0,0.0,84,0.00,,,0.00,WeatherDisplay:10.37,2013-01-27 03:38:00,
2013-01-26 22:43:00,17.3,13.3,30.38,SW,221,0.3,2.3,84,0.00,,,0.00,WeatherDisplay:10.37,2013-01-27 03:43:00,
2013-01-26 22:48:00,17.5,13.5,30.38,SW,221,0.0,0.0,84,0.00,,,0.00,WeatherDisplay:10.37,2013-01-27 03:48:00,
2013-01-26 22:53:00,17.7,13.4,30.38,SW,219,0.5,1.1,83,0.00,,,0.00,WeatherDisplay:10.37,2013-01-27 03:53:00,
2013-01-26 22:58:00,18.0,13.7,30.38,SSW,196,0.3,1.1,83,0.00,,,0.00,WeatherDisplay:10.37,2013-01-27 03:58:00,
2013-01-26 23:03:00,18.3,13.7,30.38,SSW,194,0.5,1.1,82,0.00,,,0.00,WeatherDisplay:10.37,2013-01-27 04:03:00,
2013-01-26 23:08:00,18.4,13.5,30.38,SSW,194,1.7,3.5,81,0.00,,,0.00,WeatherDisplay:10.37,2013-01-27 04:08:00,
2013-01-26 23:13:00,18.5,13.6,30.38,SSW,197,0.0,0.0,81,0.00,,,0.00,WeatherDisplay:10.37,2013-01-27 04:13:00,
2013-01-26 23:18:00,18.5,13.6,30.38,WNW,298,0.0,0.0,81,0.00,,,0.00,WeatherDisplay:10.37,2013-01-27 04:18:00,
2013-01-26 23:23:00,18.4,13.5,30.38,NW,326,0.0,0.0,81,0.00,,,0.00,WeatherDisplay:10.37,2013-01-27 04:23:00,
2013-01-26 23:28:00,18.4,13.5,30.39,SW,214,0.0,0.0,81,0.00,,,0.00,WeatherDisplay:10.37,2013-01-27 04:28:00,
2013-01-26 23:33:00,18.5,13.6,30.39,SW,214,0.0,0.0,81,0.00,,,0.00,WeatherDisplay:10.37,2013-01-27 04:33:00,
2013-01-26 23:38:00,18.4,13.5,30.39,SW,214,0.0,0.0,81,0.00,,,0.00,WeatherDisplay:10.37,2013-01-27 04:38:00,
2013-01-26 23:43:00,18.4,13.5,30.39,SW,214,0.0,0.0,81,0.00,,,0.00,WeatherDisplay:10.37,2013-01-27 04:43:00,
2013-01-26 23:48:00,18.4,13.5,30.39,SW,214,0.0,0.0,81,0.00,,,0.00,WeatherDisplay:10.37,2013-01-27 04:48:00,
2013-01-26 23:53:00,18.5,13.6,30.40,SW,214,0.0,0.0,81,0.00,,,0.00,WeatherDisplay:10.37,2013-01-27 04:53:00,
2013-01-26 23:58:00,18.6,13.7,30.39,WSW,240,0.0,0.0,81,0.00,,,0.00,WeatherDisplay:10.37,2013-01-27 04:58:00,